DW7267 Weather Reports


time (UTC)temp
C
wind
direction
speed
KPH
gust
KPH
rain 1hr
cm
rain 24hr
cm
rain mn
cm
humidity
%
barometer
mb
20260507120649 11 133 6.4 20.9 0.00 0.00 0.00 27 1020.0
20260507120149 11 79 8.0 24.1 0.00 0.00 0.00 27 1020.0
20260507115642 11 169 9.7 24.1 0.00 0.00 0.00 27 1020.0
20260507115143 11 130 9.7 24.1 0.00 0.00 0.00 27 1020.0
20260507114143 11 119 8.0 20.9 0.00 0.00 0.00 27 1020.2
20260507113643 11 134 8.0 22.5 0.00 0.00 0.00 27 1020.0
20260507113144 11 132 8.0 22.5 0.00 0.00 0.00 28 1020.2
20260507112637 11 179 6.4 17.7 0.00 0.00 0.00 29 1020.2
20260507112137 11 167 8.0 17.7 0.00 0.00 0.00 30 1020.2
20260507111636 10 176 6.4 17.7 0.00 0.00 0.00 31 1020.2
20260507111137 9 61 4.8 16.1 0.00 0.00 0.00 35 1020.2
20260507110637 7 91 4.8 16.1 0.00 0.00 0.00 41 1020.2
20260507110410 5 143 1.6 11.3 0.00 0.00 0.00 53 1020.3
20260507105632 3 109 0.0 8.0 0.00 0.00 0.00 64 1020.3
20260507105133 2 87 0.0 1.6 0.00 0.00 0.00 74 1020.4
20260507104633 2 86 0.0 1.6 0.00 0.00 0.00 78 1020.4
20260507104405 1 87 0.0 1.6 0.00 0.00 0.00 80 1020.4
20260507103631 1 95 0.0 1.6 0.00 0.00 0.00 82 1020.5
20260507103131 1 96 0.0 1.6 0.00 0.00 0.00 82 1020.5
20260507102629 1 95 0.0 1.6 0.00 0.00 0.00 82 1020.5
20260507102128 1 96 0.0 1.6 0.00 0.00 0.00 82 1020.6
20260507101901 1 106 0.0 0.0 0.00 0.00 0.00 81 1020.6
20260507101359 1 107 0.0 0.0 0.00 0.00 0.00 80 1020.6
20260507100627 1 106 0.0 0.0 0.00 0.00 0.00 79 1020.6
20260507100125 1 107 0.0 0.0 0.00 0.00 0.00 79 1020.7
20260507095621 2 106 0.0 0.0 0.00 0.00 0.00 79 1020.7
20260507095120 2 106 0.0 0.0 0.00 0.00 0.00 78 1020.7
20260507094622 2 107 0.0 1.6 0.00 0.00 0.00 78 1020.6
20260507094121 2 107 0.0 1.6 0.00 0.00 0.00 78 1020.6
20260507093619 2 106 0.0 3.2 0.00 0.00 0.00 77 1020.5
20260507093120 2 107 0.0 3.2 0.00 0.00 0.00 78 1020.4
20260507092616 2 81 0.0 4.8 0.00 0.00 0.00 79 1020.4
20260507092115 2 71 0.0 4.8 0.00 0.00 0.00 79 1020.4
20260507091612 2 143 0.0 0.0 0.00 0.00 0.00 77 1020.4
20260507091113 2 143 0.0 0.0 0.00 0.00 0.00 77 1020.5
20260507090613 2 143 0.0 0.0 0.00 0.00 0.00 76 1020.5
20260507090343 2 143 0.0 0.0 0.00 0.00 0.00 75 1020.6
20260507085609 3 131 0.0 8.0 0.00 0.00 0.00 74 1020.6
20260507085110 3 131 0.0 8.0 0.00 0.00 0.00 72 1020.6
20260507084609 3 117 1.6 9.7 0.00 0.00 0.00 71 1020.6
20260507084109 4 116 3.2 9.7 0.00 0.00 0.00 71 1020.7
20260507083607 3 73 1.6 9.7 0.00 0.00 0.00 73 1020.7
20260507083107 3 77 0.0 6.4 0.00 0.00 0.00 71 1020.7
20260507082605 4 121 0.0 6.4 0.00 0.00 0.00 70 1020.7
20260507082102 4 120 1.6 6.4 0.00 0.00 0.00 69 1020.7
20260507081600 5 120 3.2 6.4 0.00 0.00 0.00 70 1020.7
20260507081101 4 95 1.6 6.4 0.00 0.00 0.00 71 1020.9
20260507080832 4 88 3.2 6.4 0.00 0.00 0.00 72 1020.9
20260507075557 4 146 1.6 4.8 0.00 0.00 0.00 69 1020.7
20260507075057 5 155 1.6 9.7 0.00 0.00 0.00 67 1020.7
20260507074557 5 207 3.2 9.7 0.00 0.00 0.00 66 1020.7
20260507074058 5 124 4.8 9.7 0.00 0.00 0.00 66 1020.7
20260507073555 5 80 6.4 11.3 0.00 0.00 0.00 66 1020.7
20260507073328 5 82 8.0 12.9 0.00 0.00 0.00 66 1020.7
20260507072548 5 63 6.4 12.9 0.00 0.00 0.00 66 1020.7
20260507072320 6 56 6.4 9.7 0.00 0.00 0.00 66 1020.7
20260507071551 6 84 4.8 9.7 0.00 0.00 0.00 65 1020.7
20260507071049 6 84 4.8 8.0 0.00 0.00 0.00 64 1020.9
20260507070550 6 84 4.8 8.0 0.00 0.00 0.00 65 1020.9
20260507070320 6 74 3.2 8.0 0.00 0.00 0.00 65 1020.9
20260507065817 6 80 3.2 6.4 0.00 0.00 0.00 65 1020.9
20260507065045 6 96 3.2 8.0 0.00 0.00 0.00 65 1020.7
20260507064816 6 82 3.2 9.7 0.00 0.00 0.00 65 1020.7
20260507064045 6 121 3.2 9.7 0.00 0.00 0.00 65 1020.7
20260507063543 6 88 1.6 8.0 0.00 0.00 0.00 64 1020.7
20260507063044 6 119 4.8 9.7 0.00 0.00 0.00 63 1020.7
20260507062539 7 118 4.8 11.3 0.00 0.00 0.00 61 1020.7
20260507062040 7 111 3.2 11.3 0.00 0.00 0.00 62 1020.7
20260507061539 6 84 1.6 11.3 0.00 0.00 0.00 63 1020.7
20260507061040 6 123 1.6 8.0 0.00 0.00 0.00 62 1020.6
20260507060538 7 150 4.8 8.0 0.00 0.00 0.00 61 1020.7
20260507060037 6 86 1.6 8.0 0.00 0.00 0.00 63 1020.6
20260507055531 6 61 0.0 4.8 0.00 0.00 0.00 63 1020.6
20260507055029 6 112 1.6 6.4 0.00 0.00 0.00 62 1020.5
20260507054527 7 112 1.6 6.4 0.00 0.00 0.00 61 1020.4
20260507054026 7 86 1.6 8.0 0.00 0.00 0.00 60 1020.4
20260507053525 7 126 3.2 9.7 0.00 0.00 0.00 59 1020.4
20260507053020 7 51 1.6 9.7 0.00 0.00 0.00 60 1020.4
20260507052752 7 98 1.6 6.4 0.00 0.00 0.00 60 1020.4
20260507052022 7 86 1.6 6.4 0.00 0.00 0.00 60 1020.4
20260507051521 7 74 0.0 3.2 0.00 0.00 0.00 60 1020.3
20260507051020 7 123 1.6 4.8 0.00 0.00 0.00 61 1020.3
20260507050751 7 123 0.0 4.8 0.00 0.00 0.00 61 1020.3
20260507050243 7 131 0.0 6.4 0.00 0.00 0.00 60 1020.2
20260507045512 7 88 0.0 6.4 0.00 0.00 0.00 60 1020.0
20260507045009 7 122 0.0 1.6 0.00 0.00 0.00 60 1020.2
20260507044508 7 122 0.0 1.6 0.00 0.00 0.00 59 1020.2
20260507044008 7 122 0.0 1.6 0.00 0.00 0.00 59 1020.0
20260507043506 7 98 0.0 1.6 0.00 0.00 0.00 59 1020.0
20260507043003 7 98 0.0 1.6 0.00 0.00 0.00 59 1019.9
20260507042503 7 65 0.0 1.6 0.00 0.00 0.00 59 1020.0
20260507042003 8 247 0.0 0.0 0.00 0.00 0.00 58 1019.9
20260507041502 8 247 0.0 0.0 0.00 0.00 0.00 56 1019.8
20260507041002 8 247 0.0 0.0 0.00 0.00 0.00 55 1019.7
20260507040731 9 247 0.0 0.0 0.00 0.00 0.00 54 1019.7
20260507040230 9 246 0.0 0.0 0.00 0.00 0.00 52 1019.7
20260507035459 10 247 0.0 0.0 0.00 0.00 0.00 50 1019.7
20260507034958 10 247 0.0 0.0 0.00 0.00 0.00 48 1019.4
20260507034455 11 246 0.0 0.0 0.00 0.00 0.00 48 1019.4
20260507033955 11 247 0.0 0.0 0.00 0.00 0.00 47 1019.3
20260507033448 11 247 0.0 0.0 0.00 0.00 0.00 45 1019.3
20260507032947 12 247 0.0 1.6 0.00 0.00 0.00 44 1019.2
20260507032445 12 247 0.0 1.6 0.00 0.00 0.00 43 1019.2
20260507031943 12 247 0.0 1.6 0.00 0.00 0.00 41 1019.1
20260507031444 13 247 0.0 1.6 0.00 0.00 0.00 41 1019.0
20260507030942 13 247 0.0 8.0 0.00 0.00 0.00 40 1018.8
20260507030441 13 247 0.0 8.0 0.00 0.00 0.00 39 1018.7
20260507025940 13 247 1.6 9.7 0.00 0.00 0.00 39 1018.6
20260507025440 14 241 1.6 9.7 0.00 0.00 0.00 38 1018.5
20260507024940 14 238 1.6 8.0 0.00 0.00 0.00 38 1018.4
20260507024442 14 250 1.6 9.7 0.00 0.00 0.00 38 1018.4
20260507023941 14 278 1.6 9.7 0.00 0.00 0.00 38 1018.3
20260507023707 14 251 1.6 9.7 0.00 0.00 0.00 37 1018.3
20260507022706 15 259 0.0 9.7 0.00 0.00 0.00 37 1018.1
20260507021935 15 240 0.0 9.7 0.00 0.00 0.00 36 1018.0
20260507021435 15 238 0.0 9.7 0.00 0.00 0.00 36 1018.0
20260507020429 15 265 0.0 9.7 0.00 0.00 0.00 35 1017.8
20260507015926 16 272 1.6 9.7 0.00 0.00 0.00 34 1017.8
20260507015426 16 158 3.2 11.3 0.00 0.00 0.00 34 1017.8
20260507014924 16 230 3.2 11.3 0.00 0.00 0.00 33 1017.8
20260507014424 16 221 1.6 8.0 0.00 0.00 0.00 33 1017.7
20260507013917 16 241 1.6 8.0 0.00 0.00 0.00 33 1017.5
20260507013149 17 250 1.6 8.0 0.00 0.00 0.00 32 1017.4
20260507012418 17 221 1.6 8.0 0.00 0.00 0.00 32 1017.4
20260507011917 18 268 1.6 8.0 0.00 0.00 0.00 30 1017.5
20260507010912 18 242 1.6 8.0 0.00 0.00 0.00 29 1017.4
20260507005913 18 195 3.2 9.7 0.00 0.00 0.00 29 1017.4
20260507005412 19 217 3.2 11.3 0.00 0.00 0.00 30 1017.4
20260507004912 19 236 4.8 11.3 0.00 0.00 0.00 28 1017.3
20260507004410 19 237 4.8 19.3 0.00 0.00 0.00 28 1017.3
20260507003906 19 250 4.8 19.3 0.00 0.00 0.00 27 1017.3
20260507003404 20 235 4.8 19.3 0.00 0.00 0.00 25 1017.3
20260507002905 20 6 4.8 19.3 0.00 0.00 0.00 25 1017.3
20260507002406 20 269 1.6 16.1 0.00 0.00 0.00 25 1017.2
20260507001407 20 212 3.2 16.1 0.00 0.00 0.00 26 1017.2
20260507000902 20 242 4.8 16.1 0.00 0.00 0.00 25 1017.2
20260507000633 20 279 3.2 12.9 0.00 0.00 0.00 27 1017.2
20260506235903 20 278 3.2 12.9 0.00 0.00 0.00 26 1017.0
20260506235402 20 265 4.8 14.5 0.00 0.00 0.00 26 1017.0
20260506234902 20 270 3.2 17.7 0.00 0.00 0.00 25 1017.0
20260506234404 20 274 3.2 17.7 0.00 0.00 0.00 26 1017.2
20260506234135 20 72 4.8 17.7 0.00 0.00 0.00 26 1017.2
20260506233358 20 252 4.8 17.7 0.00 0.00 0.00 26 1017.2
20260506232858 20 262 3.2 16.1 0.00 0.00 0.00 27 1017.2
20260506232357 19 281 4.8 16.1 0.00 0.00 0.00 27 1017.2
20260506232129 19 237 4.8 16.1 0.00 0.00 0.00 26 1017.3
20260506231358 19 303 3.2 16.1 0.00 0.00 0.00 28 1017.3
20260506230859 19 202 6.4 17.7 0.00 0.00 0.00 27 1017.3
20260506230352 19 225 4.8 17.7 0.00 0.00 0.00 26 1017.4
20260506225852 19 352 4.8 12.9 0.00 0.00 0.00 27 1017.3
20260506225352 19 327 4.8 14.5 0.00 0.00 0.00 27 1017.3
20260506224852 19 290 3.2 14.5 0.00 0.00 0.00 27 1017.3
20260506224352 19 339 4.8 14.5 0.00 0.00 0.00 28 1017.3
20260506223851 19 213 4.8 20.9 0.00 0.00 0.00 28 1017.3
20260506223344 19 275 6.4 20.9 0.00 0.00 0.00 28 1017.4
20260506222845 19 327 8.0 22.5 0.00 0.00 0.00 29 1017.5
20260506222347 19 349 8.0 22.5 0.00 0.00 0.00 28 1017.3
20260506221846 19 25 6.4 20.9 0.00 0.00 0.00 28 1017.5
20260506221345 19 25 6.4 20.9 0.00 0.00 0.00 29 1017.5
20260506221115 19 266 8.0 17.7 0.00 0.00 0.00 29 1017.4
20260506215838 18 233 4.8 19.3 0.00 0.00 0.00 30 1017.7
20260506215340 18 321 8.0 19.3 0.00 0.00 0.00 30 1017.7
20260506214839 18 258 6.4 19.3 0.00 0.00 0.00 29 1017.8
20260506214340 18 257 6.4 19.3 0.00 0.00 0.00 30 1017.7
20260506213334 18 270 4.8 20.9 0.00 0.00 0.00 29 1017.9
20260506212834 18 250 4.8 25.7 0.00 0.00 0.00 30 1017.9
20260506212334 18 79 6.4 25.7 0.00 0.00 0.00 31 1018.0
20260506211835 18 243 8.0 27.4 0.00 0.00 0.00 31 1018.0
20260506211605 17 266 6.4 27.4 0.00 0.00 0.00 31 1018.1
20260506210833 17 254 6.4 17.7 0.00 0.00 0.00 30 1018.1
20260506210328 17 245 6.4 19.3 0.00 0.00 0.00 31 1018.1
20260506205824 17 313 6.4 19.3 0.00 0.00 0.00 30 1018.3
20260506205324 17 210 6.4 14.5 0.00 0.00 0.00 30 1018.3
20260506205057 17 237 4.8 14.5 0.00 0.00 0.00 32 1018.4
20260506204325 17 216 4.8 14.5 0.00 0.00 0.00 34 1018.4
20260506203825 17 186 4.8 14.5 0.00 0.00 0.00 33 1018.4
20260506203552 17 303 4.8 14.5 0.00 0.00 0.00 33 1018.5
20260506202822 17 228 4.8 12.9 0.00 0.00 0.00 33 1018.5
20260506202322 17 318 4.8 17.7 0.00 0.00 0.00 35 1018.5
20260506201821 16 259 6.4 17.7 0.00 0.00 0.00 36 1018.5
20260506201320 16 224 8.0 19.3 0.00 0.00 0.00 36 1018.5
20260506200819 16 247 8.0 19.3 0.00 0.00 0.00 34 1018.6
20260506200315 16 228 6.4 19.3 0.00 0.00 0.00 33 1018.6
20260506195316 16 299 4.8 14.5 0.00 0.00 0.00 34 1018.6
20260506194815 16 282 4.8 16.1 0.00 0.00 0.00 34 1018.6
20260506194313 16 279 4.8 16.1 0.00 0.00 0.00 35 1018.7
20260506193815 16 212 4.8 16.1 0.00 0.00 0.00 35 1018.7
20260506193310 16 241 6.4 17.7 0.00 0.00 0.00 35 1018.8
20260506192810 16 254 6.4 17.7 0.00 0.00 0.00 35 1018.7
20260506192309 16 214 4.8 19.3 0.00 0.00 0.00 36 1018.8
20260506191810 16 236 6.4 19.3 0.00 0.00 0.00 35 1018.7
20260506191308 16 212 6.4 19.3 0.00 0.00 0.00 35 1018.8
20260506190304 16 323 3.2 14.5 0.00 0.00 0.00 36 1019.0
20260506185803 15 332 6.4 16.1 0.00 0.00 0.00 37 1019.0
20260506185306 15 244 6.4 17.7 0.00 0.00 0.00 36 1019.0
20260506185034 15 327 6.4 17.7 0.00 0.00 0.00 35 1019.1
20260506184302 15 283 6.4 17.7 0.00 0.00 0.00 37 1019.1
20260506183801 15 278 6.4 17.7 0.00 0.00 0.00 35 1019.1
20260506183258 15 295 4.8 17.7 0.00 0.00 0.00 35 1019.1
20260506182758 15 278 4.8 14.5 0.00 0.00 0.00 36 1019.2
20260506182300 15 223 4.8 16.1 0.00 0.00 0.00 37 1019.1
20260506181758 14 263 6.4 16.1 0.00 0.00 0.00 38 1019.1
20260506181527 14 272 6.4 16.1 0.00 0.00 0.00 39 1019.1
20260506181027 14 250 4.8 17.7 0.00 0.03 0.00 38 1019.1
20260506180522 15 254 3.2 17.7 0.00 0.03 0.00 39 1019.1
20260506175752 14 300 6.4 16.1 0.00 0.03 0.00 38 1019.2
20260506175252 14 296 4.8 16.1 0.00 0.05 0.00 38 1019.1
20260506174752 14 286 3.2 12.9 0.00 0.18 0.00 41 1019.1
20260506174250 14 303 3.2 17.7 0.00 0.18 0.00 38 1019.1
20260506173749 13 286 3.2 17.7 0.00 0.18 0.00 43 1019.1
20260506173242 13 247 4.8 17.7 0.00 0.18 0.00 41 1019.1
20260506172742 13 51 6.4 17.7 0.00 0.18 0.00 40 1019.2
20260506172244 13 53 4.8 16.1 0.00 0.18 0.00 41 1019.1
20260506171744 13 298 6.4 16.1 0.00 0.18 0.00 42 1019.1
20260506171244 12 293 6.4 17.7 0.00 0.18 0.00 43 1019.2
20260506170743 13 247 4.8 17.7 0.00 0.18 0.00 41 1019.1
20260506170240 13 277 4.8 14.5 0.00 0.18 0.00 41 1019.1
20260506165740 13 237 4.8 12.9 0.00 0.18 0.00 41 1019.1
20260506164740 13 280 3.2 9.7 0.00 0.18 0.00 42 1019.0
20260506164242 12 242 3.2 9.7 0.00 0.18 0.00 42 1019.0
20260506163742 12 6 3.2 9.7 0.00 0.18 0.00 43 1019.0
20260506163243 12 265 3.2 12.9 0.00 0.18 0.00 43 1018.8
20260506162508 12 304 4.8 16.1 0.00 0.18 0.00 42 1018.8
20260506161738 12 199 4.8 16.1 0.00 0.18 0.00 43 1018.8
20260506161238 12 332 3.2 14.5 0.00 0.18 0.00 41 1018.7
20260506160736 12 244 4.8 14.5 0.00 0.18 0.00 42 1018.7
20260506160507 12 228 4.8 14.5 0.00 0.18 0.00 41 1018.7
20260506160002 12 247 4.8 14.5 0.00 0.18 0.00 42 1018.7
20260506155229 12 38 1.6 9.7 0.00 0.18 0.00 46 1018.7
20260506154730 12 104 1.6 8.0 0.00 0.18 0.00 46 1018.7
20260506154229 11 22 3.2 8.0 0.00 0.18 0.00 47 1018.6
20260506154000 11 46 3.2 8.0 0.00 0.18 0.00 46 1018.6
20260506153229 11 265 1.6 11.3 0.00 0.18 0.00 46 1018.6
20260506152728 11 38 1.6 11.3 0.00 0.18 0.00 47 1018.6
20260506152227 11 330 1.6 11.3 0.00 0.18 0.00 48 1018.5
20260506151727 11 337 3.2 11.3 0.00 0.18 0.00 47 1018.5
20260506151225 11 274 1.6 11.3 0.00 0.18 0.00 45 1018.5
20260506150724 11 269 1.6 4.8 0.00 0.18 0.00 53 1018.4
20260506150224 11 150 1.6 4.8 0.00 0.18 0.00 53 1018.4
20260506145718 10 84 1.6 4.8 0.00 0.18 0.00 57 1018.4
20260506145216 10 86 0.0 3.2 0.00 0.18 0.00 59 1018.4
20260506144945 10 112 0.0 3.2 0.00 0.18 0.00 62 1018.4
20260506144212 9 96 0.0 3.2 0.00 0.18 0.00 64 1018.4
20260506143712 8 96 0.0 1.6 0.00 0.18 0.00 68 1018.3
20260506143205 7 96 0.0 1.6 0.00 0.18 0.00 69 1018.4
20260506142705 7 96 1.6 4.8 0.00 0.20 0.00 72 1018.3
20260506142206 6 95 1.6 4.8 0.00 0.20 0.00 74 1018.3
20260506141936 6 107 1.6 4.8 0.00 0.23 0.00 77 1018.3
20260506141437 5 128 1.6 6.4 0.00 0.23 0.00 79 1018.3
20260506140705 5 119 3.2 6.4 0.00 0.23 0.00 79 1018.3
20260506140200 5 91 3.2 6.4 0.00 0.23 0.00 79 1018.3
20260506135659 4 97 1.6 6.4 0.00 0.23 0.00 81 1018.3
20260506135159 4 118 0.0 3.2 0.00 0.23 0.00 84 1018.4
20260506134700 3 148 0.0 3.2 0.00 0.23 0.00 85 1018.3
20260506134159 3 148 0.0 3.2 0.00 0.23 0.00 86 1018.3
20260506133700 2 143 0.0 3.2 0.00 0.23 0.00 87 1018.1
20260506133156 2 136 0.0 3.2 0.00 0.23 0.00 88 1018.0
20260506132655 2 136 0.0 3.2 0.00 0.23 0.00 89 1018.0
20260506132424 1 133 0.0 4.8 0.00 0.23 0.00 90 1017.9
20260506131653 1 150 0.0 4.8 0.00 0.23 0.00 91 1017.9
20260506131425 1 84 0.0 4.8 0.00 0.23 0.00 91 1017.8
20260506130654 0 84 0.0 4.8 0.00 0.23 0.00 92 1017.8
20260506130148 0 94 1.6 4.8 0.00 0.23 0.00 92 1017.7
20260506125648 -1 153 1.6 4.8 0.00 0.23 0.00 92 1017.5
20260506125419 -1 131 1.6 4.8 0.00 0.23 0.00 91 1017.4
20260506124648 -1 127 0.0 3.2 0.00 0.23 0.00 91 1017.4
20260506124147 -1 144 0.0 3.2 0.00 0.23 0.00 91 1017.3
20260506123647 -1 144 0.0 3.2 0.00 0.23 0.00 91 1017.3
20260506123143 -1 119 0.0 3.2 0.00 0.23 0.00 91 1017.3
20260506122644 -1 119 0.0 3.2 0.00 0.23 0.00 90 1017.2
20260506122144 -1 143 0.0 4.8 0.00 0.23 0.00 90 1017.0
20260506121644 -1 143 0.0 4.8 0.00 0.23 0.00 90 1017.0
20260506121142 -1 143 1.6 6.4 0.00 0.23 0.00 90 1017.0